contact:dominique.lefevre@mio.osupytheas.fr, maurice.libes@osupytheas.fr, didier.mallarino@osupytheas.fr
Project:EMSO http://www.emso-fr.org/EMSO-France
Depth: 2436.0 m
Title:EMSO Ligure Ouest : Data MII capteur MICROCAT
DateTime_Computer,Latitude,Longitude,Temperature,Conductivity,Pressure,DateTime_Instrument
DateTime_Computer,Latitude,Longitude,degC,S m-1,dbar,DateTime_Instrument
2020-10-05T00:02:21Z,42.805,6.029,13.2974,4.59978,2470.171,2020-10-05T02:03:14Z
2020-10-05T00:05:24Z,42.805,6.029,13.2975,4.59976,2470.171,2020-10-05T02:06:17Z
2020-10-05T00:08:27Z,42.805,6.029,13.2974,4.59976,2470.133,2020-10-05T02:09:20Z
2020-10-05T00:11:30Z,42.805,6.029,13.2973,4.59977,2470.171,2020-10-05T02:12:23Z
2020-10-05T00:14:33Z,42.805,6.029,13.2976,4.59976,2470.194,2020-10-05T02:15:26Z
2020-10-05T00:17:36Z,42.805,6.029,13.2974,4.59976,2470.156,2020-10-05T02:18:30Z
2020-10-05T00:20:39Z,42.805,6.029,13.2975,4.59977,2470.133,2020-10-05T02:21:33Z
2020-10-05T00:23:43Z,42.805,6.029,13.2973,4.59980,2470.18,2020-10-05T02:24:36Z
2020-10-05T00:26:46Z,42.805,6.029,13.2972,4.59976,2470.11,2020-10-05T02:27:39Z
2020-10-05T00:29:49Z,42.805,6.029,13.2976,4.59978,2470.133,2020-10-05T02:30:42Z
2020-10-05T00:32:52Z,42.805,6.029,13.2972,4.59976,2470.147,2020-10-05T02:33:45Z
2020-10-05T00:35:55Z,42.805,6.029,13.2976,4.59976,2470.133,2020-10-05T02:36:48Z
2020-10-05T00:38:58Z,42.805,6.029,13.2972,4.59975,2470.133,2020-10-05T02:39:51Z
2020-10-05T00:42:01Z,42.805,6.029,13.2973,4.59976,2470.133,2020-10-05T02:42:55Z
2020-10-05T00:45:04Z,42.805,6.029,13.2975,4.59975,2470.133,2020-10-05T02:45:58Z
2020-10-05T00:48:08Z,42.805,6.029,13.2969,4.59976,2470.156,2020-10-05T02:49:01Z
2020-10-05T00:51:11Z,42.805,6.029,13.2974,4.59976,2470.133,2020-10-05T02:52:04Z
2020-10-05T00:54:14Z,42.805,6.029,13.2974,4.59976,2470.147,2020-10-05T02:55:07Z
2020-10-05T00:57:17Z,42.805,6.029,13.2974,4.59976,2470.11,2020-10-05T02:58:10Z
2020-10-05T01:00:20Z,42.805,6.029,13.2974,4.59976,2470.133,2020-10-05T03:01:13Z
2020-10-05T01:03:23Z,42.805,6.029,13.2971,4.59974,2470.133,2020-10-05T03:04:16Z
2020-10-05T01:06:26Z,42.805,6.029,13.2976,4.59976,2470.133,2020-10-05T03:07:19Z
2020-10-05T01:09:29Z,42.805,6.029,13.2975,4.59977,2470.133,2020-10-05T03:10:23Z
2020-10-05T01:12:32Z,42.805,6.029,13.2975,4.59976,2470.124,2020-10-05T03:13:26Z
2020-10-05T01:15:36Z,42.805,6.029,13.2971,4.59974,2470.156,2020-10-05T03:16:29Z
2020-10-05T01:18:39Z,42.805,6.029,13.2978,4.59976,2470.124,2020-10-05T03:19:32Z
2020-10-05T01:21:42Z,42.805,6.029,13.2972,4.59974,2470.1,2020-10-05T03:22:35Z
2020-10-05T01:24:45Z,42.805,6.029,13.2971,4.59975,2470.133,2020-10-05T03:25:38Z
2020-10-05T01:27:48Z,42.805,6.029,13.2972,4.59976,2470.147,2020-10-05T03:28:41Z
2020-10-05T01:30:51Z,42.805,6.029,13.2976,4.59976,2470.11,2020-10-05T03:31:44Z
2020-10-05T01:33:54Z,42.805,6.029,13.2974,4.59976,2470.124,2020-10-05T03:34:48Z
2020-10-05T01:36:57Z,42.805,6.029,13.2974,4.59976,2470.087,2020-10-05T03:37:51Z
2020-10-05T01:40:01Z,42.805,6.029,13.2982,4.59975,2470.133,2020-10-05T03:40:54Z
2020-10-05T01:43:04Z,42.805,6.029,13.2974,4.59976,2470.124,2020-10-05T03:43:57Z
2020-10-05T01:46:07Z,42.805,6.029,13.2981,4.59977,2470.11,2020-10-05T03:47:00Z
2020-10-05T01:49:10Z,42.805,6.029,13.2983,4.59984,2470.1,2020-10-05T03:50:03Z
2020-10-05T01:52:13Z,42.805,6.029,13.2979,4.59976,2470.11,2020-10-05T03:53:06Z
2020-10-05T01:55:16Z,42.805,6.029,13.2979,4.59979,2470.077,2020-10-05T03:56:09Z
2020-10-05T01:58:19Z,42.805,6.029,13.2974,4.59975,2470.087,2020-10-05T03:59:12Z
2020-10-05T02:01:22Z,42.805,6.029,13.2980,4.59979,2470.1,2020-10-05T04:02:16Z
2020-10-05T02:04:25Z,42.805,6.029,13.2974,4.59983,2470.087,2020-10-05T04:05:19Z
2020-10-05T02:07:29Z,42.805,6.029,13.2990,4.59986,2470.11,2020-10-05T04:08:22Z
2020-10-05T02:10:32Z,42.805,6.029,13.3000,4.59986,2470.087,2020-10-05T04:11:25Z
2020-10-05T02:13:35Z,42.805,6.029,13.2972,4.59976,2470.087,2020-10-05T04:14:28Z
2020-10-05T02:16:38Z,42.805,6.029,13.2978,4.59976,2470.087,2020-10-05T04:17:31Z
2020-10-05T02:19:41Z,42.805,6.029,13.2987,4.59980,2470.1,2020-10-05T04:20:34Z
2020-10-05T02:22:44Z,42.805,6.029,13.2993,4.59996,2470.087,2020-10-05T04:23:37Z
2020-10-05T02:25:47Z,42.805,6.029,13.2991,4.60002,2470.063,2020-10-05T04:26:41Z
2020-10-05T02:28:50Z,42.805,6.029,13.2991,4.60002,2470.087,2020-10-05T04:29:44Z
2020-10-05T02:31:54Z,42.805,6.029,13.2996,4.60011,2470.077,2020-10-05T04:32:47Z
2020-10-05T02:34:57Z,42.805,6.029,13.2982,4.59994,2470.124,2020-10-05T04:35:50Z
2020-10-05T02:38:00Z,42.805,6.029,13.2993,4.60001,2470.087,2020-10-05T04:38:53Z
2020-10-05T02:41:03Z,42.805,6.029,13.2996,4.60003,2470.1,2020-10-05T04:41:56Z
2020-10-05T02:44:06Z,42.805,6.029,13.2996,4.60018,2470.087,2020-10-05T04:44:59Z
2020-10-05T02:47:09Z,42.805,6.029,13.2993,4.59996,2470.077,2020-10-05T04:48:02Z
2020-10-05T02:50:12Z,42.805,6.029,13.2994,4.60017,2470.087,2020-10-05T04:51:05Z
2020-10-05T02:53:15Z,42.805,6.029,13.2995,4.60023,2470.087,2020-10-05T04:54:09Z
2020-10-05T02:56:18Z,42.805,6.029,13.2990,4.60013,2470.124,2020-10-05T04:57:12Z
2020-10-05T02:59:22Z,42.805,6.029,13.2987,4.60026,2470.087,2020-10-05T05:00:15Z
2020-10-05T03:02:25Z,42.805,6.029,13.2991,4.60021,2470.1,2020-10-05T05:03:18Z
2020-10-05T03:05:28Z,42.805,6.029,13.2998,4.60021,2470.124,2020-10-05T05:06:21Z
2020-10-05T03:08:31Z,42.805,6.029,13.2990,4.60027,2470.087,2020-10-05T05:09:24Z
2020-10-05T03:11:34Z,42.805,6.029,13.2989,4.60002,2470.147,2020-10-05T05:12:27Z
2020-10-05T03:14:37Z,42.805,6.029,13.2987,4.60003,2470.11,2020-10-05T05:15:30Z
2020-10-05T03:17:40Z,42.805,6.029,13.2996,4.60017,2470.087,2020-10-05T05:18:34Z
2020-10-05T03:20:43Z,42.805,6.029,13.2988,4.60023,2470.087,2020-10-05T05:21:37Z
2020-10-05T03:23:46Z,42.805,6.029,13.2987,4.60016,2470.11,2020-10-05T05:24:40Z
2020-10-05T03:26:50Z,42.805,6.029,13.2980,4.60002,2470.087,2020-10-05T05:27:43Z
2020-10-05T03:29:53Z,42.805,6.029,13.2987,4.60015,2470.147,2020-10-05T05:30:46Z
2020-10-05T03:32:56Z,42.805,6.029,13.2977,4.60013,2470.124,2020-10-05T05:33:49Z
2020-10-05T03:35:59Z,42.805,6.029,13.2982,4.60003,2470.1,2020-10-05T05:36:52Z
2020-10-05T03:39:02Z,42.805,6.029,13.2991,4.60013,2470.124,2020-10-05T05:39:55Z
2020-10-05T03:42:05Z,42.805,6.029,13.2983,4.60031,2470.11,2020-10-05T05:42:58Z
2020-10-05T03:45:08Z,42.805,6.029,13.2982,4.60002,2470.11,2020-10-05T05:46:02Z
2020-10-05T03:48:11Z,42.805,6.029,13.2983,4.60009,2470.133,2020-10-05T05:49:05Z
2020-10-05T03:51:15Z,42.805,6.029,13.2988,4.60026,2470.147,2020-10-05T05:52:08Z
2020-10-05T03:54:18Z,42.805,6.029,13.2989,4.60002,2470.087,2020-10-05T05:55:11Z
2020-10-05T03:57:21Z,42.805,6.029,13.2979,4.60006,2470.124,2020-10-05T05:58:14Z
2020-10-05T04:00:24Z,42.805,6.029,13.2987,4.60014,2470.1,2020-10-05T06:01:17Z
2020-10-05T04:03:27Z,42.805,6.029,13.2989,4.60021,2470.124,2020-10-05T06:04:20Z
2020-10-05T04:06:30Z,42.805,6.029,13.2982,4.60014,2470.147,2020-10-05T06:07:23Z
2020-10-05T04:09:33Z,42.805,6.029,13.2994,4.59995,2470.11,2020-10-05T06:10:26Z
2020-10-05T04:12:36Z,42.805,6.029,13.2979,4.60010,2470.11,2020-10-05T06:13:30Z
2020-10-05T04:15:39Z,42.805,6.029,13.2993,4.60020,2470.1,2020-10-05T06:16:33Z
2020-10-05T04:18:43Z,42.805,6.029,13.2979,4.60001,2470.171,2020-10-05T06:19:36Z
2020-10-05T04:21:46Z,42.805,6.029,13.2982,4.60003,2470.124,2020-10-05T06:22:39Z
2020-10-05T04:24:49Z,42.805,6.029,13.2989,4.60001,2470.087,2020-10-05T06:25:42Z
2020-10-05T04:27:52Z,42.805,6.029,13.2980,4.59996,2470.11,2020-10-05T06:28:45Z
2020-10-05T04:30:55Z,42.805,6.029,13.2984,4.60013,2470.11,2020-10-05T06:31:48Z
2020-10-05T04:33:58Z,42.805,6.029,13.2983,4.60004,2470.087,2020-10-05T06:34:51Z
2020-10-05T04:37:01Z,42.805,6.029,13.2986,4.60016,2470.11,2020-10-05T06:37:55Z
2020-10-05T04:40:04Z,42.805,6.029,13.2991,4.60011,2470.147,2020-10-05T06:40:58Z
2020-10-05T04:43:08Z,42.805,6.029,13.2997,4.60022,2470.124,2020-10-05T06:44:01Z
2020-10-05T04:46:11Z,42.805,6.029,13.2987,4.60024,2470.133,2020-10-05T06:47:04Z
2020-10-05T04:49:14Z,42.805,6.029,13.2986,4.60017,2470.11,2020-10-05T06:50:07Z
2020-10-05T04:52:17Z,42.805,6.029,13.2987,4.60008,2470.124,2020-10-05T06:53:10Z
2020-10-05T04:55:20Z,42.805,6.029,13.2983,4.60016,2470.11,2020-10-05T06:56:13Z
2020-10-05T04:58:23Z,42.805,6.029,13.2990,4.60021,2470.147,2020-10-05T06:59:16Z
2020-10-05T05:01:26Z,42.805,6.029,13.2988,4.60016,2470.1,2020-10-05T07:02:19Z
2020-10-05T05:04:29Z,42.805,6.029,13.2986,4.60007,2470.133,2020-10-05T07:05:23Z
2020-10-05T05:07:32Z,42.805,6.029,13.2977,4.60016,2470.133,2020-10-05T07:08:26Z
2020-10-05T05:10:36Z,42.805,6.029,13.2986,4.60010,2470.11,2020-10-05T07:11:29Z
2020-10-05T05:13:39Z,42.805,6.029,13.2985,4.60001,2470.11,2020-10-05T07:14:32Z
2020-10-05T05:16:42Z,42.805,6.029,13.2986,4.60015,2470.11,2020-10-05T07:17:35Z
2020-10-05T05:19:45Z,42.805,6.029,13.2983,4.60002,2470.133,2020-10-05T07:20:38Z
2020-10-05T05:22:48Z,42.805,6.029,13.2989,4.60010,2470.133,2020-10-05T07:23:41Z
2020-10-05T05:25:51Z,42.805,6.029,13.2981,4.60019,2470.147,2020-10-05T07:26:44Z
2020-10-05T05:28:54Z,42.805,6.029,13.2982,4.60010,2470.156,2020-10-05T07:29:48Z
2020-10-05T05:31:57Z,42.805,6.029,13.2984,4.60014,2470.133,2020-10-05T07:32:51Z
2020-10-05T05:35:01Z,42.805,6.029,13.2991,4.60003,2470.156,2020-10-05T07:35:54Z
2020-10-05T05:38:04Z,42.805,6.029,13.2988,4.60014,2470.147,2020-10-05T07:38:57Z
2020-10-05T05:41:07Z,42.805,6.029,13.2986,4.59991,2470.147,2020-10-05T07:42:00Z
2020-10-05T05:44:10Z,42.805,6.029,13.2989,4.60019,2470.147,2020-10-05T07:45:03Z
2020-10-05T05:47:13Z,42.805,6.029,13.2987,4.60014,2470.18,2020-10-05T07:48:06Z
2020-10-05T05:50:16Z,42.805,6.029,13.2987,4.59996,2470.156,2020-10-05T07:51:09Z
2020-10-05T05:53:19Z,42.805,6.029,13.2980,4.59997,2470.156,2020-10-05T07:54:12Z
2020-10-05T05:56:22Z,42.805,6.029,13.2986,4.60007,2470.133,2020-10-05T07:57:16Z
2020-10-05T05:59:25Z,42.805,6.029,13.2983,4.60009,2470.133,2020-10-05T08:00:19Z
2020-10-05T06:02:29Z,42.805,6.029,13.2984,4.59994,2470.194,2020-10-05T08:03:22Z
2020-10-05T06:05:32Z,42.805,6.029,13.2979,4.59991,2470.133,2020-10-05T08:06:25Z
2020-10-05T06:08:35Z,42.805,6.029,13.2979,4.59993,2470.166,2020-10-05T08:09:28Z
2020-10-05T06:11:38Z,42.805,6.029,13.2981,4.59992,2470.194,2020-10-05T08:12:31Z
2020-10-05T06:14:41Z,42.805,6.029,13.2987,4.59999,2470.119,2020-10-05T08:15:34Z
2020-10-05T06:17:44Z,42.805,6.029,13.2987,4.60011,2470.194,2020-10-05T08:18:37Z
2020-10-05T06:20:47Z,42.805,6.029,13.2979,4.60015,2470.194,2020-10-05T08:21:41Z
2020-10-05T06:23:50Z,42.805,6.029,13.2983,4.59996,2470.203,2020-10-05T08:24:44Z
2020-10-05T06:26:54Z,42.805,6.029,13.2981,4.60003,2470.171,2020-10-05T08:27:47Z
2020-10-05T06:29:57Z,42.805,6.029,13.2985,4.60002,2470.18,2020-10-05T08:30:50Z
2020-10-05T06:33:00Z,42.805,6.029,13.2992,4.60003,2470.203,2020-10-05T08:33:53Z
2020-10-05T06:36:03Z,42.805,6.029,13.2983,4.60004,2470.194,2020-10-05T08:36:56Z
2020-10-05T06:39:06Z,42.805,6.029,13.2996,4.60014,2470.217,2020-10-05T08:39:59Z
2020-10-05T06:42:09Z,42.805,6.029,13.2989,4.60014,2470.217,2020-10-05T08:43:02Z
2020-10-05T06:45:12Z,42.805,6.029,13.2983,4.60020,2470.227,2020-10-05T08:46:06Z
2020-10-05T06:48:15Z,42.805,6.029,13.3004,4.60025,2470.203,2020-10-05T08:49:09Z
2020-10-05T06:51:19Z,42.805,6.029,13.2994,4.60027,2470.227,2020-10-05T08:52:12Z
2020-10-05T06:54:22Z,42.805,6.029,13.2989,4.60016,2470.24,2020-10-05T08:55:15Z
2020-10-05T06:57:25Z,42.805,6.029,13.2987,4.60016,2470.25,2020-10-05T08:58:18Z
2020-10-05T07:00:28Z,42.805,6.029,13.2999,4.60026,2470.24,2020-10-05T09:01:21Z
2020-10-05T07:03:31Z,42.805,6.029,13.2998,4.60033,2470.25,2020-10-05T09:04:24Z
2020-10-05T07:06:34Z,42.805,6.029,13.3008,4.60026,2470.227,2020-10-05T09:07:27Z
2020-10-05T07:09:37Z,42.805,6.029,13.3004,4.60028,2470.203,2020-10-05T09:10:30Z
2020-10-05T07:12:40Z,42.805,6.029,13.2998,4.60024,2470.25,2020-10-05T09:13:34Z
2020-10-05T07:15:43Z,42.805,6.029,13.3021,4.60007,2470.227,2020-10-05T09:16:37Z
2020-10-05T07:18:47Z,42.805,6.029,13.3004,4.60026,2470.25,2020-10-05T09:19:40Z
2020-10-05T07:21:50Z,42.805,6.029,13.2998,4.60023,2470.264,2020-10-05T09:22:43Z
2020-10-05T07:24:53Z,42.805,6.029,13.2994,4.60039,2470.227,2020-10-05T09:25:46Z
2020-10-05T07:27:56Z,42.805,6.029,13.3002,4.60031,2470.264,2020-10-05T09:28:49Z
2020-10-05T07:30:59Z,42.805,6.029,13.3006,4.60041,2470.24,2020-10-05T09:31:52Z
2020-10-05T07:34:02Z,42.805,6.029,13.2997,4.60028,2470.203,2020-10-05T09:34:55Z
2020-10-05T07:37:05Z,42.805,6.029,13.3000,4.60016,2470.31,2020-10-05T09:37:59Z
2020-10-05T07:40:08Z,42.805,6.029,13.2980,4.59988,2470.264,2020-10-05T09:41:02Z
2020-10-05T07:43:12Z,42.805,6.029,13.3000,4.60035,2470.227,2020-10-05T09:44:05Z
2020-10-05T07:46:15Z,42.805,6.029,13.2995,4.60040,2470.25,2020-10-05T09:47:08Z
2020-10-05T07:49:18Z,42.805,6.029,13.2997,4.59994,2470.25,2020-10-05T09:50:11Z
2020-10-05T07:52:21Z,42.805,6.029,13.3000,4.60015,2470.25,2020-10-05T09:53:14Z
2020-10-05T07:55:24Z,42.805,6.029,13.3007,4.59993,2470.25,2020-10-05T09:56:17Z
2020-10-05T07:58:27Z,42.805,6.029,13.2994,4.60033,2470.273,2020-10-05T09:59:20Z
2020-10-05T08:01:30Z,42.805,6.029,13.2998,4.59994,2470.287,2020-10-05T10:02:23Z
2020-10-05T08:04:33Z,42.805,6.029,13.3004,4.59996,2470.297,2020-10-05T10:05:27Z
2020-10-05T08:07:36Z,42.805,6.029,13.3007,4.60004,2470.213,2020-10-05T10:08:30Z
2020-10-05T08:10:40Z,42.805,6.029,13.2993,4.60041,2470.273,2020-10-05T10:11:33Z
2020-10-05T08:13:43Z,42.805,6.029,13.2998,4.59997,2470.273,2020-10-05T10:14:36Z
2020-10-05T08:16:46Z,42.805,6.029,13.3019,4.59994,2470.287,2020-10-05T10:17:39Z
2020-10-05T08:19:49Z,42.805,6.029,13.2991,4.60003,2470.264,2020-10-05T10:20:42Z
2020-10-05T08:22:52Z,42.805,6.029,13.3002,4.60014,2470.287,2020-10-05T10:23:45Z
2020-10-05T08:25:55Z,42.805,6.029,13.3006,4.60007,2470.273,2020-10-05T10:26:48Z
2020-10-05T08:28:58Z,42.805,6.029,13.2987,4.60000,2470.287,2020-10-05T10:29:52Z
2020-10-05T08:32:01Z,42.805,6.029,13.2993,4.60004,2470.273,2020-10-05T10:32:55Z
2020-10-05T08:35:05Z,42.805,6.029,13.2988,4.59995,2470.273,2020-10-05T10:35:58Z
2020-10-05T08:38:08Z,42.805,6.029,13.2991,4.59990,2470.273,2020-10-05T10:39:01Z
2020-10-05T08:41:11Z,42.805,6.029,13.2994,4.59983,2470.287,2020-10-05T10:42:04Z
2020-10-05T08:44:14Z,42.805,6.029,13.2987,4.59992,2470.273,2020-10-05T10:45:07Z
2020-10-05T08:47:17Z,42.805,6.029,13.2982,4.59988,2470.273,2020-10-05T10:48:10Z
2020-10-05T08:50:20Z,42.805,6.029,13.2983,4.60000,2470.25,2020-10-05T10:51:13Z
2020-10-05T08:53:23Z,42.805,6.029,13.2991,4.60005,2470.31,2020-10-05T10:54:17Z
2020-10-05T08:56:26Z,42.805,6.029,13.2987,4.59995,2470.264,2020-10-05T10:57:20Z
2020-10-05T08:59:30Z,42.805,6.029,13.2990,4.59993,2470.273,2020-10-05T11:00:23Z
2020-10-05T09:02:33Z,42.805,6.029,13.2995,4.59987,2470.273,2020-10-05T11:03:26Z
2020-10-05T09:05:36Z,42.805,6.029,13.2979,4.60003,2470.264,2020-10-05T11:06:29Z
2020-10-05T09:08:39Z,42.805,6.029,13.2985,4.59991,2470.273,2020-10-05T11:09:32Z
2020-10-05T09:11:42Z,42.805,6.029,13.2990,4.59990,2470.287,2020-10-05T11:12:35Z
2020-10-05T09:14:45Z,42.805,6.029,13.2983,4.59994,2470.213,2020-10-05T11:15:38Z
2020-10-05T09:17:48Z,42.805,6.029,13.2995,4.59990,2470.264,2020-10-05T11:18:42Z
2020-10-05T09:20:51Z,42.805,6.029,13.2994,4.59986,2470.25,2020-10-05T11:21:45Z
2020-10-05T09:23:55Z,42.805,6.029,13.2991,4.59986,2470.203,2020-10-05T11:24:48Z
2020-10-05T09:26:58Z,42.805,6.029,13.2995,4.59996,2470.25,2020-10-05T11:27:51Z
2020-10-05T09:30:01Z,42.805,6.029,13.2990,4.59994,2470.25,2020-10-05T11:30:54Z
2020-10-05T09:33:04Z,42.805,6.029,13.2984,4.59988,2470.287,2020-10-05T11:33:57Z
2020-10-05T09:36:07Z,42.805,6.029,13.2990,4.59992,2470.287,2020-10-05T11:37:00Z
2020-10-05T09:39:10Z,42.805,6.029,13.2989,4.59989,2470.25,2020-10-05T11:40:03Z
2020-10-05T09:42:13Z,42.805,6.029,13.2991,4.59995,2470.264,2020-10-05T11:43:07Z
2020-10-05T09:45:16Z,42.805,6.029,13.2993,4.59997,2470.287,2020-10-05T11:46:10Z
2020-10-05T09:48:20Z,42.805,6.029,13.2999,4.59998,2470.25,2020-10-05T11:49:13Z
2020-10-05T09:51:23Z,42.805,6.029,13.2999,4.59996,2470.24,2020-10-05T11:52:16Z
2020-10-05T09:54:26Z,42.805,6.029,13.2985,4.59995,2470.25,2020-10-05T11:55:19Z
2020-10-05T09:57:29Z,42.805,6.029,13.3003,4.59996,2470.25,2020-10-05T11:58:22Z
2020-10-05T10:00:32Z,42.805,6.029,13.2988,4.59990,2470.273,2020-10-05T12:01:25Z
2020-10-05T10:03:35Z,42.805,6.029,13.3002,4.59998,2470.287,2020-10-05T12:04:28Z
2020-10-05T10:06:38Z,42.805,6.029,13.2987,4.59988,2470.287,2020-10-05T12:07:31Z
2020-10-05T10:09:41Z,42.805,6.029,13.2998,4.59998,2470.25,2020-10-05T12:10:35Z
2020-10-05T10:12:45Z,42.805,6.029,13.2998,4.59996,2470.236,2020-10-05T12:13:38Z
2020-10-05T10:15:48Z,42.805,6.029,13.3002,4.59993,2470.264,2020-10-05T12:16:41Z
2020-10-05T10:18:51Z,42.805,6.029,13.2995,4.59994,2470.25,2020-10-05T12:19:44Z
2020-10-05T10:21:54Z,42.805,6.029,13.2996,4.59989,2470.203,2020-10-05T12:22:47Z
2020-10-05T10:24:57Z,42.805,6.029,13.2991,4.59992,2470.227,2020-10-05T12:25:50Z
2020-10-05T10:28:00Z,42.805,6.029,13.2995,4.59996,2470.227,2020-10-05T12:28:53Z
2020-10-05T10:31:03Z,42.805,6.029,13.2986,4.59985,2470.24,2020-10-05T12:31:57Z
2020-10-05T10:34:06Z,42.805,6.029,13.2989,4.59990,2470.264,2020-10-05T12:35:00Z
2020-10-05T10:37:09Z,42.805,6.029,13.3001,4.59991,2470.264,2020-10-05T12:38:03Z
2020-10-05T10:40:13Z,42.805,6.029,13.3002,4.59999,2470.25,2020-10-05T12:41:06Z
2020-10-05T10:43:16Z,42.805,6.029,13.3000,4.59988,2470.273,2020-10-05T12:44:09Z
2020-10-05T10:46:19Z,42.805,6.029,13.3006,4.60002,2470.287,2020-10-05T12:47:12Z
2020-10-05T10:49:22Z,42.805,6.029,13.3002,4.59994,2470.25,2020-10-05T12:50:15Z
2020-10-05T10:52:25Z,42.805,6.029,13.2996,4.59999,2470.24,2020-10-05T12:53:18Z
2020-10-05T10:55:28Z,42.805,6.029,13.3006,4.59995,2470.264,2020-10-05T12:56:21Z
2020-10-05T10:58:31Z,42.805,6.029,13.3018,4.60001,2470.227,2020-10-05T12:59:25Z
2020-10-05T11:01:34Z,42.805,6.029,13.3004,4.59997,2470.227,2020-10-05T13:02:28Z
2020-10-05T11:04:38Z,42.805,6.029,13.2993,4.60000,2470.24,2020-10-05T13:05:31Z
2020-10-05T11:07:41Z,42.805,6.029,13.3006,4.60001,2470.227,2020-10-05T13:08:34Z
2020-10-05T11:10:44Z,42.805,6.029,13.3009,4.60018,2470.203,2020-10-05T13:11:37Z
2020-10-05T11:13:47Z,42.805,6.029,13.3000,4.60011,2470.203,2020-10-05T13:14:40Z
2020-10-05T11:16:50Z,42.805,6.029,13.3003,4.60005,2470.227,2020-10-05T13:17:43Z
2020-10-05T11:19:53Z,42.805,6.029,13.2997,4.60009,2470.217,2020-10-05T13:20:46Z
2020-10-05T11:22:56Z,42.805,6.029,13.3011,4.60024,2470.227,2020-10-05T13:23:50Z
2020-10-05T11:25:59Z,42.805,6.029,13.3027,4.60038,2470.24,2020-10-05T13:26:53Z
2020-10-05T11:29:02Z,42.805,6.029,13.3021,4.60039,2470.203,2020-10-05T13:29:56Z
2020-10-05T11:32:06Z,42.805,6.029,13.3036,4.60039,2470.264,2020-10-05T13:32:59Z
2020-10-05T11:35:09Z,42.805,6.029,13.3031,4.60020,2470.217,2020-10-05T13:36:02Z
2020-10-05T11:38:12Z,42.805,6.029,13.3004,4.60014,2470.203,2020-10-05T13:39:05Z
2020-10-05T11:41:15Z,42.805,6.029,13.2984,4.60005,2470.24,2020-10-05T13:42:08Z
2020-10-05T11:44:18Z,42.805,6.029,13.2993,4.60014,2470.18,2020-10-05T13:45:11Z
2020-10-05T11:47:21Z,42.805,6.029,13.2974,4.60016,2470.203,2020-10-05T13:48:14Z
2020-10-05T11:50:24Z,42.805,6.029,13.2974,4.59990,2470.171,2020-10-05T13:51:18Z
2020-10-05T11:53:27Z,42.805,6.029,13.2974,4.59986,2470.18,2020-10-05T13:54:21Z
2020-10-05T11:56:31Z,42.805,6.029,13.2971,4.59983,2470.203,2020-10-05T13:57:24Z
2020-10-05T11:59:34Z,42.805,6.029,13.2973,4.59986,2470.18,2020-10-05T14:00:27Z
2020-10-05T12:02:37Z,42.805,6.029,13.2971,4.59983,2470.203,2020-10-05T14:03:30Z
2020-10-05T12:05:40Z,42.805,6.029,13.2973,4.59988,2470.18,2020-10-05T14:06:33Z
2020-10-05T12:08:43Z,42.805,6.029,13.2972,4.59986,2470.18,2020-10-05T14:09:36Z
2020-10-05T12:11:46Z,42.805,6.029,13.2974,4.59986,2470.171,2020-10-05T14:12:39Z
2020-10-05T12:14:49Z,42.805,6.029,13.2974,4.59991,2470.156,2020-10-05T14:15:43Z
2020-10-05T12:17:52Z,42.805,6.029,13.2975,4.59988,2470.18,2020-10-05T14:18:46Z
2020-10-05T12:20:56Z,42.805,6.029,13.2972,4.59980,2470.156,2020-10-05T14:21:49Z
2020-10-05T12:23:59Z,42.805,6.029,13.2976,4.59978,2470.171,2020-10-05T14:24:52Z
2020-10-05T12:27:02Z,42.805,6.029,13.2974,4.59979,2470.171,2020-10-05T14:27:55Z
2020-10-05T12:30:05Z,42.805,6.029,13.2974,4.59986,2470.171,2020-10-05T14:30:58Z
2020-10-05T12:33:08Z,42.805,6.029,13.2972,4.59980,2470.156,2020-10-05T14:34:01Z
2020-10-05T12:36:11Z,42.805,6.029,13.2975,4.59985,2470.156,2020-10-05T14:37:04Z
2020-10-05T12:39:14Z,42.805,6.029,13.2971,4.59984,2470.171,2020-10-05T14:40:08Z
2020-10-05T12:42:17Z,42.805,6.029,13.2971,4.59981,2470.124,2020-10-05T14:43:11Z
2020-10-05T12:45:21Z,42.805,6.029,13.2974,4.59978,2470.194,2020-10-05T14:46:14Z
2020-10-05T12:48:24Z,42.805,6.029,13.2972,4.59985,2470.11,2020-10-05T14:49:17Z
2020-10-05T12:51:27Z,42.805,6.029,13.2976,4.59981,2470.171,2020-10-05T14:52:20Z
2020-10-05T12:54:30Z,42.805,6.029,13.2974,4.59981,2470.133,2020-10-05T14:55:23Z
2020-10-05T12:57:33Z,42.805,6.029,13.2971,4.59981,2470.156,2020-10-05T14:58:26Z
2020-10-05T13:00:36Z,42.805,6.029,13.2970,4.59984,2470.147,2020-10-05T15:01:29Z
2020-10-05T13:03:39Z,42.805,6.029,13.2970,4.59984,2470.156,2020-10-05T15:04:33Z
2020-10-05T13:06:42Z,42.805,6.029,13.2971,4.59987,2470.156,2020-10-05T15:07:36Z
2020-10-05T13:09:46Z,42.805,6.029,13.2976,4.59981,2470.133,2020-10-05T15:10:39Z
2020-10-05T13:12:49Z,42.805,6.029,13.2971,4.59981,2470.133,2020-10-05T15:13:42Z
2020-10-05T13:15:52Z,42.805,6.029,13.2976,4.59976,2470.133,2020-10-05T15:16:45Z
2020-10-05T13:18:55Z,42.805,6.029,13.2968,4.59979,2470.133,2020-10-05T15:19:48Z
2020-10-05T13:21:58Z,42.805,6.029,13.2970,4.59976,2470.133,2020-10-05T15:22:51Z
2020-10-05T13:25:01Z,42.805,6.029,13.2975,4.59980,2470.143,2020-10-05T15:25:54Z
2020-10-05T13:28:04Z,42.805,6.029,13.2974,4.59982,2470.11,2020-10-05T15:28:58Z
2020-10-05T13:31:07Z,42.805,6.029,13.2975,4.59974,2470.133,2020-10-05T15:32:01Z
2020-10-05T13:34:10Z,42.805,6.029,13.2968,4.59978,2470.124,2020-10-05T15:35:04Z
2020-10-05T13:37:14Z,42.805,6.029,13.2969,4.59975,2470.133,2020-10-05T15:38:07Z
2020-10-05T13:40:17Z,42.805,6.029,13.2971,4.59975,2470.171,2020-10-05T15:41:10Z
2020-10-05T13:43:20Z,42.805,6.029,13.2974,4.59978,2470.133,2020-10-05T15:44:13Z
2020-10-05T13:46:23Z,42.805,6.029,13.2973,4.59976,2470.124,2020-10-05T15:47:16Z
2020-10-05T13:49:26Z,42.805,6.029,13.2974,4.59978,2470.133,2020-10-05T15:50:19Z
2020-10-05T13:52:29Z,42.805,6.029,13.2976,4.59981,2470.133,2020-10-05T15:53:23Z
2020-10-05T13:55:32Z,42.805,6.029,13.2975,4.59978,2470.087,2020-10-05T15:56:26Z
2020-10-05T13:58:35Z,42.805,6.029,13.2974,4.59976,2470.133,2020-10-05T15:59:29Z
2020-10-05T14:01:39Z,42.805,6.029,13.2971,4.59974,2470.11,2020-10-05T16:02:32Z
2020-10-05T14:04:42Z,42.805,6.029,13.2972,4.59975,2470.11,2020-10-05T16:05:35Z
2020-10-05T14:07:45Z,42.805,6.029,13.2971,4.59982,2470.11,2020-10-05T16:08:38Z
2020-10-05T14:10:48Z,42.805,6.029,13.2974,4.59978,2470.11,2020-10-05T16:11:41Z
2020-10-05T14:13:51Z,42.805,6.029,13.2973,4.59974,2470.11,2020-10-05T16:14:44Z
2020-10-05T14:16:54Z,42.805,6.029,13.2971,4.59974,2470.11,2020-10-05T16:17:47Z
2020-10-05T14:19:57Z,42.805,6.029,13.2974,4.59976,2470.147,2020-10-05T16:20:51Z
2020-10-05T14:23:00Z,42.805,6.029,13.2971,4.59976,2470.147,2020-10-05T16:23:54Z
2020-10-05T14:26:04Z,42.805,6.029,13.2971,4.59977,2470.171,2020-10-05T16:26:57Z
2020-10-05T14:29:07Z,42.805,6.029,13.2981,4.59976,2470.11,2020-10-05T16:30:00Z
2020-10-05T14:32:10Z,42.805,6.029,13.2970,4.59975,2470.133,2020-10-05T16:33:03Z
2020-10-05T14:35:13Z,42.805,6.029,13.2974,4.59974,2470.11,2020-10-05T16:36:06Z
2020-10-05T14:38:16Z,42.805,6.029,13.2980,4.59979,2470.156,2020-10-05T16:39:09Z
2020-10-05T14:41:19Z,42.805,6.029,13.2976,4.59973,2470.087,2020-10-05T16:42:12Z
2020-10-05T14:44:22Z,42.805,6.029,13.2974,4.59978,2470.11,2020-10-05T16:45:16Z
2020-10-05T14:47:25Z,42.805,6.029,13.2972,4.59973,2470.147,2020-10-05T16:48:19Z
2020-10-05T14:50:29Z,42.805,6.029,13.2980,4.59975,2470.133,2020-10-05T16:51:22Z
2020-10-05T14:53:32Z,42.805,6.029,13.2976,4.59978,2470.11,2020-10-05T16:54:25Z
2020-10-05T14:56:35Z,42.805,6.029,13.2972,4.59975,2470.156,2020-10-05T16:57:28Z
2020-10-05T14:59:38Z,42.805,6.029,13.2971,4.59974,2470.124,2020-10-05T17:00:31Z
2020-10-05T15:02:41Z,42.805,6.029,13.2974,4.59976,2470.156,2020-10-05T17:03:34Z